Moose, Wyoming, United States (83012)
Lat: 43.66N, Lon: 110.72W
Wx Zone: WYZ013
Local Info
Past Weather Observations for Friday, July 3, 2015

NOTE: This archive is for the closest National Weather Service station to Moose. Information may differ from the station used for current weather conditions.

Click here for Long-term Archive

Time Weather Temperature Dewpoint Humidity Pressure Winds Precip Visibility
23:55
Clear
57°F / 14°C 48°F / 9°C 72% 30.09 in
(1019 mb)
NNE 5.8 mph
(NNE 9 kph)
- 10SM
23:35
Clear
59°F / 15°C 48°F / 9°C 68% 30.09 in
(1019 mb)
Calm - 10SM
23:15
Partly Cloudy
61°F / 16°C 48°F / 9°C 63% 30.09 in
(1019 mb)
Calm - 10SM
22:55
Partly Cloudy
63°F / 17°C 48°F / 9°C 59% 30.09 in
(1019 mb)
NE 3.5 mph
(NE 6 kph)
- 10SM
22:35
Mostly Cloudy
64°F / 18°C 50°F / 10°C 60% 30.09 in
(1019 mb)
NNW 3.5 mph
(NNW 6 kph)
- 10SM
22:15
Mostly Cloudy
66°F / 19°C 50°F / 10°C 56% 30.09 in
(1019 mb)
Calm - 10SM
21:55
Partly Cloudy
66°F / 19°C 50°F / 10°C 56% 30.09 in
(1019 mb)
Calm - 10SM
21:35
Partly Cloudy
66°F / 19°C 48°F / 9°C 52% 30.09 in
(1019 mb)
NNW 5.8 mph
(NNW 9 kph)
- 10SM
21:15
Mostly Cloudy
68°F / 20°C 48°F / 9°C 49% 30.09 in
(1019 mb)
ENE 4.6 mph
(ENE 7 kph)
- 10SM
20:55
Mostly Cloudy
70°F / 21°C 52°F / 11°C 53% 30.09 in
(1019 mb)
N 4.6 mph
(N 7 kph)
- 10SM
20:35
Overcast
70°F / 21°C 52°F / 11°C 53% 30.06 in
(1018 mb)
NE 4.6 mph
(NE 7 kph)
- 10SM
20:15
Overcast
70°F / 21°C 52°F / 11°C 53% 30.06 in
(1018 mb)
N 6.9 mph
(N 11 kph)
- 10SM
19:55
Partly Cloudy
73°F / 23°C 50°F / 10°C 44% 30.06 in
(1018 mb)
NNW 3.5 mph
(NNW 6 kph)
- 10SM
19:35
Partly Cloudy
79°F / 26°C 46°F / 8°C 32% 30.06 in
(1018 mb)
Calm - 10SM
19:15
Partly Cloudy
79°F / 26°C 45°F / 7°C 30% 30.06 in
(1018 mb)
Calm - 10SM
18:55
Partly Cloudy
79°F / 26°C 41°F / 5°C 26% 30.06 in
(1018 mb)
Calm - 10SM
18:51
Mostly Cloudy
79°F / 26°C 45°F / 7°C 30% 30.06 in
(1018 mb)
Calm - 10SM
18:35
Mostly Cloudy
81°F / 27°C 43°F / 6°C 26% 30.06 in
(1018 mb)
SSE 4.6 mph
(SSE 7 kph)
- 10SM
18:15
Partly Cloudy
82°F / 28°C 45°F / 7°C 26% 30.06 in
(1018 mb)
Calm - 10SM
17:55
Partly Cloudy
82°F / 28°C 41°F / 5°C 23% 30.06 in
(1018 mb)
SSW 6.9 mph
(SSW 11 kph)
- 10SM
17:51
Partly Cloudy
82°F / 28°C 41°F / 5°C 23% 30.06 in
(1018 mb)
SSW 6.9 mph
(SSW 11 kph)
- 10SM
17:35
Partly Cloudy
82°F / 28°C 39°F / 4°C 21% 30.06 in
(1018 mb)
W 4.6 mph
(W 7 kph)
- 10SM
17:15
Partly Cloudy
84°F / 29°C 43°F / 6°C 23% 30.09 in
(1019 mb)
SW 8.1 mph
(SW 13 kph)
- 10SM
16:55
Partly Cloudy
82°F / 28°C 41°F / 5°C 23% 30.09 in
(1019 mb)
NW 4.6 mph
(NW 7 kph)
- 10SM
16:51
Partly Cloudy
82°F / 28°C 39°F / 4°C 21% 30.09 in
(1019 mb)
SSW 6.9 mph
(SSW 11 kph)
- 10SM
16:35
Clear
82°F / 28°C 43°F / 6°C 25% 30.09 in
(1019 mb)
SSW 4.6 mph
(SSW 7 kph)
- 10SM
16:15
Clear
84°F / 29°C 39°F / 4°C 20% 30.09 in
(1019 mb)
SSW 12.7 mph
(SSW 20 kph)
- 10SM
15:55
Partly Cloudy
84°F / 29°C 43°F / 6°C 23% 30.09 in
(1019 mb)
SW 11.5 mph
(SW 19 kph)
- 10SM
15:35
Mostly Cloudy
84°F / 29°C 39°F / 4°C 20% 30.12 in
(1020 mb)
SSW 4.6 mph
(SSW 7 kph)
- 10SM
15:15
Mostly Cloudy
84°F / 29°C 41°F / 5°C 22% 30.12 in
(1020 mb)
SSW 8.1 mph
(SSW 13 kph)
- 10SM
14:55
Partly Cloudy
84°F / 29°C 41°F / 5°C 22% 30.12 in
(1020 mb)
WNW 5.8 mph
(WNW 9 kph)
- 10SM
14:51
Partly Cloudy
84°F / 29°C 41°F / 5°C 22% 30.12 in
(1020 mb)
SW 6.9 mph
(SW 11 kph)
- 10SM
14:35
Mostly Cloudy
84°F / 29°C 39°F / 4°C 20% 30.12 in
(1020 mb)
SW 10.4 mph
(SW 17 kph)
- 10SM
14:15
Mostly Cloudy
84°F / 29°C 37°F / 3°C 19% 30.12 in
(1020 mb)
NW 6.9 mph
(NW 11 kph)
- 10SM
13:55
Partly Cloudy
84°F / 29°C 39°F / 4°C 20% 30.12 in
(1020 mb)
WNW 15 mph
(WNW 24 kph)
- 10SM
13:51
Partly Cloudy
84°F / 29°C 37°F / 3°C 19% 30.12 in
(1020 mb)
SSW 5.8 mph
(SSW 9 kph)
- 10SM
13:35
Partly Cloudy
84°F / 29°C 37°F / 3°C 19% 30.12 in
(1020 mb)
WNW 12.7 mph
(WNW 20 kph)
- 10SM
13:15
Partly Cloudy
84°F / 29°C 39°F / 4°C 20% 30.12 in
(1020 mb)
WNW 16.1 mph
(WNW 26 kph)
- 10SM
12:55
Mostly Cloudy
84°F / 29°C 41°F / 5°C 22% 30.15 in
(1021 mb)
SW 9.2 mph
(SW 15 kph)
- 10SM
12:51
Clear
84°F / 29°C 36°F / 2°C 18% 30.15 in
(1021 mb)
SW 5.8 mph
(SW 9 kph)
- 10SM
12:35
Clear
82°F / 28°C 43°F / 6°C 25% 30.15 in
(1021 mb)
SSE 9.2 mph
(SSE 15 kph)
- 10SM
12:15
Clear
82°F / 28°C 45°F / 7°C 26% 30.15 in
(1021 mb)
S 9.2 mph
(S 15 kph)
- 10SM
11:55
Clear
81°F / 27°C 50°F / 10°C 34% 30.15 in
(1021 mb)
SW 12.7 mph
(SW 20 kph)
- 10SM
11:51
Clear
81°F / 27°C 50°F / 10°C 34% 30.15 in
(1021 mb)
SW 12.7 mph
(SW 20 kph)
- 10SM
11:35
Clear
79°F / 26°C 52°F / 11°C 39% 30.18 in
(1022 mb)
SSE 10.4 mph
(SSE 17 kph)
- 10SM
11:15
Clear
77°F / 25°C 52°F / 11°C 42% 30.18 in
(1022 mb)
SW 11.5 mph
(SW 19 kph)
- 10SM
10:55
Clear
75°F / 24°C 52°F / 11°C 44% 30.18 in
(1022 mb)
SW 4.6 mph
(SW 7 kph)
- 10SM
10:51
Clear
75°F / 24°C 52°F / 11°C 44% 30.18 in
(1022 mb)
Calm - 10SM
10:35
Clear
75°F / 24°C 50°F / 10°C 41% 30.18 in
(1022 mb)
S 5.8 mph
(S 9 kph)
- 10SM
10:15
Clear
73°F / 23°C 48°F / 9°C 41% 30.18 in
(1022 mb)
SSE 4.6 mph
(SSE 7 kph)
- 10SM
09:55
Clear
72°F / 22°C 48°F / 9°C 44% 30.21 in
(1023 mb)
S 8.1 mph
(S 13 kph)
- 10SM
09:51
Fair
70°F / 21°C 46°F / 8°C 43% 30.21 in
(1023 mb)
Calm - 10SM
09:35
Clear
72°F / 22°C 46°F / 8°C 41% 30.21 in
(1023 mb)
SSE 3.5 mph
(SSE 6 kph)
- 10SM
09:15
Clear
68°F / 20°C 45°F / 7°C 43% 30.21 in
(1023 mb)
S 4.6 mph
(S 7 kph)
- 10SM
08:55
Partly Cloudy
68°F / 20°C 45°F / 7°C 43% 30.21 in
(1023 mb)
Calm - 10SM
08:51
Clear
66°F / 19°C 45°F / 7°C 46% 30.21 in
(1023 mb)
Calm - 10SM
08:35
Partly Cloudy
66°F / 19°C 45°F / 7°C 46% 30.24 in
(1024 mb)
Calm - 10SM
08:15
Partly Cloudy
64°F / 18°C 45°F / 7°C 49% 30.24 in
(1024 mb)
SE 3.5 mph
(SE 6 kph)
- 10SM
07:55
Clear
63°F / 17°C 45°F / 7°C 52% 30.24 in
(1024 mb)
Calm - 10SM
07:51
Clear
61°F / 16°C 45°F / 7°C 55% 30.24 in
(1024 mb)
Calm - 10SM
07:35
Partly Cloudy
61°F / 16°C 45°F / 7°C 55% 30.24 in
(1024 mb)
Calm - 10SM
07:15
Clear
59°F / 15°C 46°F / 8°C 63% 30.24 in
(1024 mb)
Calm - 10SM
06:55
Clear
57°F / 14°C 45°F / 7°C 63% 30.24 in
(1024 mb)
Calm - 10SM
06:51
Clear
55°F / 13°C 45°F / 7°C 67% 30.24 in
(1024 mb)
Calm - 10SM
06:35
Clear
54°F / 12°C 45°F / 7°C 72% 30.24 in
(1024 mb)
Calm - 10SM
06:15
Partly Cloudy
54°F / 12°C 46°F / 8°C 77% 30.24 in
(1024 mb)
Calm - 10SM
05:55
Partly Cloudy
50°F / 10°C 46°F / 8°C 88% 30.24 in
(1024 mb)
Calm - 10SM
05:35
Partly Cloudy
48°F / 9°C 43°F / 6°C 82% 30.24 in
(1024 mb)
Calm - 10SM
05:15
Mostly Cloudy
46°F / 8°C 43°F / 6°C 87% 30.24 in
(1024 mb)
Calm - 10SM
04:55
Mostly Cloudy
48°F / 9°C 43°F / 6°C 82% 30.24 in
(1024 mb)
E 3.5 mph
(E 6 kph)
- 10SM
04:35
Partly Cloudy
46°F / 8°C 41°F / 5°C 82% 30.24 in
(1024 mb)
NE 3.5 mph
(NE 6 kph)
- 10SM
04:15
Clear
48°F / 9°C 43°F / 6°C 82% 30.24 in
(1024 mb)
Calm - 10SM
03:55
Clear
50°F / 10°C 43°F / 6°C 76% 30.24 in
(1024 mb)
Calm - 10SM
03:35
Clear
48°F / 9°C 43°F / 6°C 82% 30.24 in
(1024 mb)
Calm - 10SM
03:15
Clear
50°F / 10°C 43°F / 6°C 76% 30.24 in
(1024 mb)
Calm - 10SM
02:55
Clear
54°F / 12°C 45°F / 7°C 72% 30.24 in
(1024 mb)
Calm - 10SM
02:35
Clear
50°F / 10°C 43°F / 6°C 76% 30.21 in
(1023 mb)
SSW 4.6 mph
(SSW 7 kph)
- 10SM
02:15
Clear
54°F / 12°C 45°F / 7°C 72% 30.24 in
(1024 mb)
E 3.5 mph
(E 6 kph)
- 10SM
01:55
Clear
54°F / 12°C 45°F / 7°C 72% 30.21 in
(1023 mb)
NE 4.6 mph
(NE 7 kph)
- 10SM
01:35
Clear
55°F / 13°C 45°F / 7°C 67% 30.21 in
(1023 mb)
Calm - 10SM
01:15
Clear
57°F / 14°C 45°F / 7°C 63% 30.21 in
(1023 mb)
NNW 3.5 mph
(NNW 6 kph)
- 10SM
00:55
Clear
57°F / 14°C 45°F / 7°C 63% 30.21 in
(1023 mb)
E 4.6 mph
(E 7 kph)
- 10SM
00:35
Clear
59°F / 15°C 43°F / 6°C 55% 30.21 in
(1023 mb)
NE 8.1 mph
(NE 13 kph)
- 10SM
00:15
Clear
59°F / 15°C 43°F / 6°C 55% 30.21 in
(1023 mb)
N 3.5 mph
(N 6 kph)
- 10SM
Time Weather Temperature Dewpoint Humidity Pressure Winds Precip Visibility


Weather for websites

WeatherForYou.com, LLC is not responsible for any damages or problems caused by this service. Current weather conditions are obtained from the closest station including government and personal stations which may have varying degrees of accuracy. Weather forecasts are derived from the NOAA NDFD. Like all things, this site belongs to Jesus Christ... He just trusts us to maintain it. If you have any questions or comments email webmaster@weatherforyou.com

Copyright © 2015, WeatherForYou.com LLC. All rights reserved.